Regional Weather Roundup
Issued by NWS Goodland, KS

Home | Current Version | Previous Version | Graphics & Text | Print | Product List | Glossary On
Versions: 1 2 3 4 5 6 7 8 9 10 11 12 13 14 15 16 17 18 19 20 21 22 23 24 25 26 27 28 29 30 31 32 33 34 35 36 37 38 39 40 41 42 43 44 45 46 47 48 49 50
000
ASUS43 KGLD 162359
RWRGLD

GOODLAND FORECAST AREA HOURLY WEATHER ROUNDUP
NATIONAL WEATHER SERVICE GOODLAND KS
600 PM MDT WED AUG 16 2017

...OFFICIAL OBSERVATIONS...

CITY           SKY/WX    TMP DP  RH WIND       PRES   REMARKS
GOODLAND KS    SUNNY     76  54  46 N14       30.02R
HILL CITY KS   SUNNY     79  62  56 N18       29.92R
IMPERIAL NEB   MOSUNNY   76  55  48 N12       30.00F
MCCOOK NEB     SUNNY     75  61  61 N17       29.96S
AKRON CO       NOT AVBL
BURLINGTON CO  NOT AVBL
LIMON CO       SUNNY     73  45  36 N10       30.14S
$$

...UNOFFICIAL OBSERVATIONS...

CITY           SKY/WX    TMP DP  RH WIND       PRES   REMARKS
LENORA KS        N/A     74  32  21 NW9         N/A
NORTON KS      SUNNY     73  55  53 N13       29.93S
SHARON SPRINGS   N/A     80  54  40 NW10G17     N/A
TRENTON NEB      N/A     73  32  22 NW7         N/A
KIT CARSON CO    N/A     81  46  28 MISG        N/A
YUMA CO        PTSUNNY   73  36  25 N12       30.06R
$$




USA.gov is the U.S. government's official web portal to all federal, state and local government web resources and services.